Regional Weather Roundup
Issued by NWS

Home | Current Version | Previous Version | Text Only | Print | Product List | Glossary Off
Versions: 1 2 3 4 5 6 7 8 9 10 11 12 13 14 15 16 17 18 19 20 21 22 23 24 25 26 27

000
ASUS45 KBOU 240207
RWRCO

WEATHER ROUNDUP FOR COLORADO
NATIONAL WEATHER SERVICE DENVER/BOULDER CO
800 PM MDT TUE MAY 23 2017

NOTE: "FAIR" INDICATES FEW OR NO CLOUDS BELOW 12000 FEET WITH NO
SIGNIFICANT WEATHER AND/OR OBSTRUCTIONS TO VISIBILITY.

COZ001>005-013-030-031-240300-
...NORTHWEST COLORADO...

CITY           SKY/WX    TMP DP  RH WIND       PRES   REMARKS
CRAIG          FAIR      57  32  38 S8        30.15S
HAYDEN         FAIR      55  30  38 SW5       30.17S
MEEKER         FAIR      58  31  35 SE5       30.16F
RABBIT EARS PA FAIR      34  32  93 W10G20    30.32S WCI  26
STEAMBOAT SPGS FAIR      54  32  43 CALM      30.18S
WALDEN           N/A     50  30  46 W6        30.22S
$$

COZ006>008-011-240300-
...WEST CENTRAL VALLEYS...

CITY           SKY/WX    TMP DP  RH WIND       PRES   REMARKS
GRAND JUNCTION FAIR      71  27  19 SE8       30.06F
MONTROSE       FAIR      65  23  20 W5        30.14F
EAGLE          FAIR      58  25  28 E6        30.19F
RIFLE          FAIR      67  26  21 N3        30.12F
DELTA          FAIR      71  20  14 W8        30.10S
NUCLA          NOT AVBL
$$

COZ017>023-064>068-240300-
...SOUTHWEST COLORADO...

CITY           SKY/WX    TMP DP  RH WIND       PRES   REMARKS
DURANGO        FAIR      64  14  14 N10       30.11R
CORTEZ         FAIR      66  25  21 N8        30.13R
PAGOSA SPRINGS FAIR      61  10  13 N7        30.16R
TELLURIDE      FAIR      51  15  24 W5        30.32S
WOLF CREEK PAS FAIR      36  10  35 NW9       30.42R
$$

COZ009-010-012-014-032>034-037-058>063-240300-
...CENTRAL COLORADO...

CITY           SKY/WX    TMP DP  RH WIND       PRES   REMARKS
ASPEN          FAIR      52  21  29 NW9       30.21R
BUENA VISTA    FAIR      54  18  24 NW18G29   30.18S
COPPER MTN     FAIR      34  23  64 MISG      30.38R
BERTHOUD PASS  FAIR      23  12  63 NW31G38   30.33S WCI   5
COTTONWOOD PAS FAIR      48  14  25 W16G26    30.27S
GUNNISON       FAIR      56  14  19 NW6       30.20S
KREMMLING      FAIR      54  32  43 SW5       30.22S
LEADVILLE      FAIR      41  19  41 N14G23    30.27S
MONARCH PASS   FAIR      37  14  38 NW10G17   30.47S
SALIDA         FAIR      58  19  21 N5        30.24R
SUNLIGHT       FAIR      37  19  48 W5        30.39F
WILKERSON PASS FAIR      32  21  64 NW14G24   30.33S WCI  22
$$

COZ069>075-240300-
...SAN LUIS VALLEY/SANGRE DE CRISTO MOUNTAINS...

CITY           SKY/WX    TMP DP  RH WIND       PRES   REMARKS
ALAMOSA        FAIR      59  21  23 NW14      30.13R
DEL NORTE      FAIR      56  18  22 NW18      30.18S
LA VETA PASS   FAIR      34  28  80 NE5       30.38S WCI  30
SAGUACHE       FAIR      55  18  22 N20G25    30.17R
$$

COZ035-036-038>040-240300-
...NORTHERN COLORADO FRONT RANGE...

CITY           SKY/WX    TMP DP  RH WIND       PRES   REMARKS
DENVER INTL AP FAIR      54  36  50 N3        30.10R
DMNS CITY PARK   N/A     57  31  37 NE5       30.10S
AURORA         PTCLDY    53  35  51 NE6       30.11R
FRONT RANGE AP PTCLDY    55  39  54 N7        30.10S
ERIE MUNI ARPT FAIR      59  34  38 E5        30.08F
BOULDER MUN AP FAIR      59  34  38 CALM      30.08F
CENTENNIAL     MOCLDY    56  32  40 N7        30.11R
BROOMFIELD     MOCLDY    57  32  38 NE6       30.11R
FORT COLLINS   FAIR      58  35  42 NE12      30.07S
LONGMONT       MOCLDY    59  37  44 E6        30.10S
$$

COZ041-046-047-076>085-087-088-240300-
...PIKES PEAK/PALMER DIVIDE AND SOUTHERN FOOTHILLS...

CITY           SKY/WX    TMP DP  RH WIND       PRES   REMARKS
COLO. SPRINGS  FAIR      55  30  38 N14       30.12S
A. F. ACADEMY  FAIR      51  29  42 N9        30.13S
SCHRIEVER AFB  FAIR      53  30  41 N13       30.13R
CHEYENNE MTN   FAIR      50  31  48 NW6       30.10R
ELLICOTT       FAIR     N/A N/A N/A NE8       30.11R
FALCON         FAIR      50  29  43 N6        30.16R
FORT CARSON    FAIR      55  31  40 NW6       30.11R
LIMON          FAIR      48  34  58 NW8       30.09R
MONUMENT HILL  FAIR      45  32  61 NW5       30.17S
CANON CITY     NOT AVBL
WALSENBURG     FAIR      54  37  54 MISG      30.14R
TRINIDAD       FAIR      55  32  41 NE6       30.13S
$$

COZ042>045-048>051-090-091-240300-
...NORTHEAST COLORADO...

CITY           SKY/WX    TMP DP  RH WIND       PRES   REMARKS
GREELEY ARPT   FAIR      58  36  43 NE8       30.07S
AKRON          FAIR      51  32  48 N10       30.05S
BURLINGTON     FAIR      53  38  56 N7        30.04R
WRAY           FAIR      52  34  50 N7        30.03S
YUMA           FAIR      50  27  40 N7        30.04R
STERLING       FAIR      54  34  47 N8        30.03S
HOLYOKE        NOT AVBL
FORT MORGAN    FAIR      51  32  48 N7        30.07S
$$

COZ086-089-092>099-240300-
...SOUTHEAST COLORADO...

CITY           SKY/WX    TMP DP  RH WIND       PRES   REMARKS
PUEBLO         FAIR      62  35  36 E6        30.07R
LA JUNTA       FAIR      58  36  43 NE5       30.05S
LAMAR          FAIR      55  38  52 N5        30.02S
SPRINGFIELD      N/A     50  35  56 N10       30.06R
$$




USA.gov is the U.S. government's official web portal to all federal, state and local government web resources and services.